Regional Weather Roundup
Issued by NWS

Home | Current Version | Previous Version | Graphics & Text | Print | Product List | Glossary On
Versions: 1 2 3 4 5 6 7 8 9 10 11 12 13 14 15 16 17 18 19 20 21 22 23 24 25 26 27 28 29 30 31 32 33 34 35 36 37 38 39 40 41 42 43 44 45 46 47 48 49 50
000
ASUS43 KLOT 252204
RWRIL

ILLINOIS REGIONAL WEATHER ROUNDUP
NATIONAL WEATHER SERVICE CHICAGO/ROMEOVILLE IL
500 PM CDT TUE APR 25 2017

NOTE: "FAIR" INDICATES FEW OR NO CLOUDS BELOW 12,000 FEET WITH NO
SIGNIFICANT WEATHER AND/OR OBSTRUCTIONS TO VISIBILITY.

* THESE STATIONS ARE NOT UNDER NWS QUALITY CONTROL. THEY ALSO MAY NOT
  REPORT WEATHER SUCH AS PRECIPITATION OR FOG.

ILZ001-002-007-009-015-016-024-252300-
NORTHWEST ILLINOIS

CITY           SKY/WX    TMP DP  RH WIND       PRES   REMARKS
MOLINE         MOSUNNY   80  42  25 SE21G26   29.45F
STERLING*      CLOUDY    80  44  27 SE16G23   29.49F
SAVANNA*       CLOUDY    79  41  25 SE18G26   29.48F
$$

ILZ003-004-008-010-011-017-018-252300-
NORTH CENTRAL ILLINOIS

CITY           SKY/WX    TMP DP  RH WIND       PRES   REMARKS
ROCKFORD       CLOUDY    78  46  32 S17G25    29.52F
FREEPORT*      PTSUNNY   74  47  37 SE20G25   29.53F
ROCHELLE*      PTSUNNY   78  47  33 SE22G28   29.52F
DE KALB*       MOSUNNY   77  48  35 SE22G29   29.53F
PERU*          CLOUDY    79  43  27 S20G31    29.49F
$$

ILZ005-006-012>014-019>023-252300-
NORTHEAST ILLINOIS

CITY           SKY/WX    TMP DP  RH WIND       PRES   REMARKS
CHICAGO-OHARE  CLOUDY    78  50  37 SE18G24   29.54F
CHICAGO-MIDWAY CLOUDY    79  48  33 SE17G26   29.55F
AURORA         CLOUDY    79  48  33 SE20G31   29.52F
LANSING*       MOSUNNY   77  54  45 S15G21    29.58R
JOLIET*        MOSUNNY   80  52  38 S12G24    29.53F
WAUKEGAN       MOSUNNY   67  52  58 SE10      29.57F
DUPAGE AIRPORT CLOUDY    77  50  38 S18G29    29.53F
KANKAKEE*      SUNNY     81  50  33 SE15G28   29.56F HX  80
WHEELING       SUNNY     75  51  43 SE12      29.56F
MORRIS*        MOSUNNY   79  46  31 SE21      29.51F
NORTHERLY ISL    N/A     62  49  62 NE8         N/A
$$

LMZ740>746-252300-
SOUTHERN LAKE MICHIGAN

STATION/POSITION SKY/WX   TEMP    WIND        PRES    VSBY  WAVE
                          AIR SEA DIR/SP/G                  HT/PER
                          (F)     (DEG/KT/KT) (MB)    (MI)  (FT/S)
SOUTHERN BUOY              48 42   90/  6/  8 1004.5          1
HARRISON CRIB              62     100/ 18/ 19   N/A
BURNHAM HARBOR             63      70/  4/  7   N/A
CALUMET HARBOR             78     160/ 12/ 18 1000.9F
BURNS HARBOR               77     140/ 15/ 22 1002.0F
MICHIGAN CITY              74     130/ 15/ 20   N/A
ST. JOSEPH                 66 50  150/ 12/ 16 1002.6F         1
$$

ILZ025>027-034>036-040-047-049-050-058-095>099-252300-
WEST-CENTRAL ILLINOIS

CITY           SKY/WX    TMP DP  RH WIND       PRES   REMARKS
QUINCY         PTSUNNY   78  47  33 SE18G24   29.42F
GALESBURG*     CLOUDY    77  44  30 SE13G24   29.46R
MACOMB*        MOSUNNY   80  43  27 S21G37    29.47S
JACKSONVILLE*  MOSUNNY   78  46  32 S18G25    29.46S
PITTSFIELD*    CLOUDY    80  52  37 SE17G26   29.45S
$$

ILZ028>032-037-038-041>044-048-051>054-059>061-252300-
CENTRAL ILLINOIS

CITY           SKY/WX    TMP DP  RH WIND       PRES   REMARKS
PONTIAC        SUNNY     81  45  27 SE21G32   29.51F HX  80
BLOOMINGTON    MOSUNNY   78  49  35 SE24G36   29.51F
DECATUR        CLOUDY    76  53  44 SE24G33   29.51F
PEORIA         MOSUNNY   79  46  31 S20G31    29.47F
LACON*         CLOUDY    79  47  32 SE18G30   29.47F
LINCOLN*       MOSUNNY   80  52  36 S23G36    29.49S HX  80
SPRINGFIELD    SUNNY     81  47  30 S25G38    29.48F HX  80
TAYLORVILLE    SUNNY     77  51  40 SE21G33   29.49F
$$

ILZ033-039-045-046-055>057-062-063-252300-
EAST-CENTRAL ILLINOIS

CITY           SKY/WX    TMP DP  RH WIND       PRES   REMARKS
CHAMPAIGN      CLOUDY    80  48  32 SE28      29.55F
RANTOUL*       SUNNY     81  50  34 SE24      29.56F HX  80
MATTOON        SUNNY     76  56  49 SE24G31   29.56F
PARIS*         SUNNY     78  55  43 SE17      29.60F
$$

ILZ079-100>102-252300-
SOUTHWEST ILLINOIS

CITY           SKY/WX    TMP DP  RH WIND       PRES   REMARKS
ALTON          PTSUNNY   77  48  36 S21G32    29.49F
BELLEVILLE     SUNNY     78  50  36 SE10G23   29.49F
CAHOKIA*       MOSUNNY   79  45  29 S24G38    29.47F
SPARTA*        SUNNY     76  51  40 S20G28    29.54F
$$

ILZ064>066-069>071-074>076-080>082-084>086-088>090-092>094-252300-
SOUTH-CENTRAL ILLINOIS

CITY           SKY/WX    TMP DP  RH WIND       PRES   REMARKS
CARBONDALE     SUNNY     76  52  43 S21G29    29.56F
CAIRO*         SUNNY     78  53  40 SE15G23   29.60F
EFFINGHAM*     SUNNY     78  56  46 SE21G31   29.58F
MARION         MOSUNNY   81  54  39 S17       29.59F HX  80
MT. VERNON     SUNNY     79  55  43 S17       29.57F
CENTRALIA*     SUNNY     79  53  40 SE20G26   29.53F
SALEM*         SUNNY     79  53  40 S12G26    29.55F
METROPOLIS*    SUNNY     80  54  40 S9        29.61F HX  80
$$

ILZ067-068-072-073-078-083-087-091-252300-
SOUTHEAST ILLINOIS

CITY           SKY/WX    TMP DP  RH WIND       PRES   REMARKS
LAWRENCEVILLE  CLOUDY    78  55  44 S17G25    29.62F
FLORA*         SUNNY     79  56  45 SE17G25   29.58F HX  80
FAIRFIELD*     SUNNY     78  56  47 SE13      29.58F
HARRISBURG*    SUNNY     78  58  50 S15       29.60F
ROBINSON*      MOSUNNY   77  55  46 S17G23    29.62F
CARMI*         SUNNY     77  57  50 SE18G24   29.60F
$$

ABBREVIATIONS USED IN REMARKS
   TC - TEMPERATURE IN CELSIUS
  WCI - WIND CHILL INDEX
   HX - HEAT INDEX
  VSB - VISIBILITY
$$




USA.gov is the U.S. government's official web portal to all federal, state and local government web resources and services.